AirNav   Everest Fuels
 
 1003 users online  

PAEE Eek Airport
Eek, Alaska, USA

GOING TO EEK?


FAA INFORMATION EFFECTIVE 21 MAY 2020

Location

FAA Identifier: EEK
Lat/Long: 60-12-49.3000N 162-02-38.0000W
60-12.821667N 162-02.633333W
60.2136944,-162.0438889
(estimated)
Elevation: 26.5 ft. / 8.1 m (surveyed)
Variation: 11E (2020)
From city: 1 mile W of EEK, AK
Time zone: UTC -8 (UTC -9 during Standard Time)
Zip code: 99578

Airport Operations

Airport use: Open to the public
Activation date: 06/1974
Control tower: no
ARTCC: ANCHORAGE CENTER
FSS: KENAI FLIGHT SERVICE STATION [907-283-7211]
NOTAMs facility: ENA (NOTAM-D service available)
Attendance: UNATNDD
Wind indicator: lighted
Segmented circle: yes
Lights: ACTVT REIL RWY 18, 36; PAPI RWY 18, 36; MIRL RWY 18/36 - CTAF.
Beacon: white-green (lighted land airport)
Operates sunset to sunrise.

Airport Communications

CTAF: 122.8
  • APCH/DEP SVC PRVDD BY ANCHORAGE ARTCC (ZAN) ON 125.2/372.0 (BETHEL RCAG).

Nearby radio navigation aids

VOR radial/distance  VOR name  Freq  Var
BETr177/34.9BETHEL VORTAC114.1014E

 
NDB name  Hdg/Dist  Freq  Var  ID
OSCARVILLE177/35.025111EOSE --- ... .

Airport Services

Airframe service: NONE
Powerplant service: NONE
Bottled oxygen: NONE
Bulk oxygen: NONE

Runway Information

Runway 18/36

Dimensions: 3242 x 60 ft. / 988 x 18 m
Surface: gravel, in good condition
Runway edge lights: medium intensity
GRASS AND BRUSH SURROUNDS RWY LGTS.
RUNWAY 18  RUNWAY 36
Latitude: 60-13.084597N60-12.559118N
Longitude: 162-02.549567W162-02.718668W
Elevation: 25.2 ft.23.1 ft.
Traffic pattern: leftleft
Runway heading: 178 magnetic, 189 true358 magnetic, 009 true
Markings: , in good condition, in good condition
Visual slope indicator: 4-light PAPI on left (3.00 degrees glide path)4-light PAPI on left (3.00 degrees glide path)
Runway end identifier lights: yesyes
Touchdown point: yes, no lightsyes, no lights
Obstructions: 3 ft. brush, 8 ft. from runway, 58 ft. right of centerline5 ft. brush, 22 ft. from runway, 60 ft. left and right of centerline

Airport Ownership and Management from official FAA records

Ownership: Publicly-owned
Owner: ALASKA DOT&PF CENTRAL REGION
PO BOX 196900
ANCHORAGE, AK 99519-6900
Phone (907) 269-0783
Manager: LAWRENCE DAVIS
BOX 505
BETHEL, AK 99559
Phone (907) 543-2498

Airport Operational Statistics

Aircraft operations: avg 38/week *
100% air taxi
* for 12-month period ending 31 December 2016

Additional Remarks

RWY CONDITION NOT MONITORED; RECOMMEND VISUAL INSPECTION PRIOR TO USING.
WX CAMERA AVBL ON INTERNET AT HTTP://AVCAMS.FAA.GOV
BIRDS INVOF ARPT.
300 FT TOWER APPX 1.1 MILES EAST OF ARPT.
6-8 IN DIPS IN RWY FULL LENGTH.

Instrument Procedures

NOTE: All procedures below are presented as PDF files. If you need a reader for these files, you should download the free Adobe Reader.

NOT FOR NAVIGATION. Please procure official charts for flight.
FAA instrument procedures published for use from 21 May 2020 at 0901Z to 18 June 2020 at 0900Z.

 
IAPs - Instrument Approach Procedures
RNAV (GPS) RWY 18   download (214KB)
RNAV (GPS) RWY 36   download (211KB)
NOTE: Special Take-Off Minimums/Departure Procedures apply   download (393KB)

Other nearby airports with instrument procedures:

PAQH - Quinhagak Airport (28 nm S)
PANA - Napakiak Airport (29 nm N)
PAPK - Napaskiak Airport (30 nm N)
PABE - Bethel Airport (34 nm N)
PFKW - Kwethluk Airport (39 nm NE)
 
Loc | Ops | Rwys | IFR | FBO | Links
Com | Nav | Svcs | Stats | Notes

Crowley
 
Area around PAEE (Eek Airport)
 
Road maps at: MapQuest Bing Google
 
Aerial photo
WARNING: Photo may not be current or correct
Aerial photo of PAEE (Eek Airport)
Photo by Security Aviation
Photo taken 20-Dec-2017
looking south over Eek.

Do you have a better or more recent aerial photo of Eek Airport that you would like to share? If so, please send us your photo.

 
Sectional chart

 
Airport distance calculator
Flying to Eek Airport? Find the distance to fly.

From to PAEE

Sunrise and sunset
Times for 04-Jun-2020
 Local
(UTC-8)
 Zulu
(UTC)
Morning civil twilight03:5711:57
Sunrise05:3013:30
Sunset00:0308:03
Evening civil twilight01:3709:37

Current date and time
Zulu (UTC)  05-Jun-2020 00:26:18
Local (UTC-8)  04-Jun-2020 16:26:18
 
METAR
PAQH 
28nm S 
042356Z AUTO 17009KT 2 1/2SM BR OVC009 07/06 A3010 RMK AO2 CIG 006V011 SLP191 T00670061 10072 20061 53003
PANA 
29nm N 
050020Z AUTO 19009KT 9SM OVC009 08/07 A3005 RMK AO2 PWINO $
PABE 
35nm N 
042353Z 22010KT 10SM BKN013 OVC019 09/06 A3006 RMK AO2 SLP181 60000 T00890061 10089 20067 50002
PFKW 
39nm NE 
041556Z AUTO 18009KT 8SM OVC005 07/06 A3003 RMK AO2 SLP169 T00670061
PPIT 
43nm N 
042356Z AUTO 20009KT 10SM OVC012 08/08 A3004 RMK AO2 SLPNO 60000 T00830078 10083 20067 50001 TSNO
TAF
PABE 
35nm N 
041737Z 0418/0518 20008KT P6SM OVC015 FM050300 24011KT P6SM OVC025 FM051200 22007KT 2SM BR OVC006
NOTAMs
Click for the latest NOTAMs
NOTAMs are issued by the DoD/FAA and will open in a separate window not controlled by AirNav.

 

 
 

Would you like to see your business listed on this page?

 If your business provides an interesting product or service to pilots, flight crews, aircraft, or users of the Eek Airport, you should consider listing it here.  To start the listing process, click on the button below
 
Add a business
 

Other Pages about Eek Airport

Update a link
 
Copyright © AirNav, LLC. All rights reserved. Privacy Policy  Contact